User: anonymous   Login
Location: ???? ?????????
(31.1304°N, 31.7111°E)
Time: 19:59:29
(UTC+00:00)
Language:

Vanguard 2 Rocket - Orbit

View from above orbital plane
View from above orbital plane
View from above satellite
View from above satellite

Ground track
Ground track

The orbit data is extracted from the following two-line orbital elements,

1    12U 59001B   21062.60244535  .00000120  00000-0  69323-4 0  9998
2    12  32.9000 164.2188 1665834 358.4493   1.1341 11.44396848552244
Epoch (UTC): 03 March 2021 14:27:31
Eccentricity: 0.1665834
inclination: 32.9000°
perigee height: 554 km
apogee height: 3325 km
right ascension of ascending node: 164.2188°
argument of perigee: 358.4493°
revolutions per day: 11.44396848
mean anomaly at epoch: 1.1341°
orbit number at epoch: 55224

The dashed part of the orbit path shows where the satellite is in the earth's shadow,  

DLR